Preview of NWS' New Version of Forecast
This preview is not operational and should not be used for support decisions.

Regional Weather Roundup (RWR)

Issued by National Weather Service (NWS)

                            
000
ASUS46 KPQR 202010
RWROR 

OREGON REGIONAL WEATHER ROUNDUP
NATIONAL WEATHER SERVICE PORTLAND OR
100 PM PDT TUE AUG 20 2019

NOTE: "FAIR" INDICATES FEW OR NO CLOUDS BELOW 12,000 FEET WITH
NO SIGNIFICANT WEATHER AND/OR OBSTRUCTIONS TO VISIBILITY.

ORZ001>013-202100-
NORTHWEST OREGON

  
CITY           SKY/WX    TMP DP  RH WIND       PRES   REMARKS
ASTORIA        PTSUNNY   67  57  70 SW12      29.97S                  
TILLAMOOK      PTSUNNY   72  55  56 W9        29.99F                  
NEWPORT        CLOUDY    63  57  82 SW13      30.03S                  
FLORENCE       FAIR      68  55  64 SW10      30.00F                  
PORTLAND       PTSUNNY   81  57  43 NE5       29.93F                  
VANCOUVER WA   MOSUNNY   79  57  46 SW5       29.93F                  
SCAPPOOSE      MOSUNNY   78  59  51 VRB5      29.92F                  
HILLSBORO      MOSUNNY   79  56  45 SE5       29.93F                  
AURORA         SUNNY     80  57  45 MISG      29.96F                  
MCMINNVILLE    MOSUNNY   79  57  46 SW8       29.94F                  
SALEM          SUNNY     79  56  45 SW10      29.94F                  
CORVALLIS      MOSUNNY   78  59  51 VRB6      29.96F                  
EUGENE         PTSUNNY   80  57  45 SW7       29.97F                  
CRESWELL       SUNNY     81  57  44 CALM      29.95F                  
$$

ORZ021-028-202100-
SOUTHWEST OREGON

  
CITY           SKY/WX    TMP DP  RH WIND       PRES   REMARKS
NORTH BEND     PTSUNNY   68  58  70 W12       30.02F                  
BROOKINGS      MOSUNNY   67  55  65 VRB7      30.04F                  
ROSEBURG       SUNNY     82  57  42 VRB7      29.96F                  
SEXTON SUMMIT  SUNNY     76  51  41 VRB6      30.09F                  
GRANTS PASS    FAIR      84  52  32 CALM      29.98F                  
MEDFORD        SUNNY     86  51  29 NW8       29.95F                  
$$

ORZ014>016-041-202100-
COLUMBIA GORGE

  
CITY           SKY/WX    TMP DP  RH WIND       PRES   REMARKS
TROUTDALE      MOSUNNY   79  56  45 VRB5      29.93F                  
HOOD RIVER     MOSUNNY   82  54  36 NW8       29.90F                  
THE DALLES     SUNNY     87  55  33 NW10      29.86F                  
$$

ORZ029>031-041-044-049-050-061>064-502-503-505>511-202100-
EASTERN OREGON

  
CITY           SKY/WX    TMP DP  RH WIND       PRES   REMARKS
MADRAS         SUNNY     86  46  25 NE3       29.98F                  
REDMOND        SUNNY     88  44  21 VRB5      29.98F                  
BEND             N/A    N/A N/A N/A MISG        N/A                   
PRINEVILLE     MOSUNNY   84  45  24 VRB5      29.99F                  
KLAMATH FALLS  SUNNY     80  38  22 VRB3      30.09F                  
LAKEVIEW       SUNNY     81  33  17 SE8       30.13F                  
HERMISTON      SUNNY     89  51  27 N3        29.87F                  
PENDLETON      SUNNY     88  47  24 NW5       29.90F                  
JOHN DAY       SUNNY     90  43  19 NW6       30.00F                  
MEACHAM        SUNNY     85  44  23 VRB3      30.03S                  
LA GRANDE      SUNNY     83  47  28 VRB3      29.97F                  
BAKER CITY     SUNNY     89  46  22 CALM      30.00F                  
BURNS          SUNNY     86  40  19 VRB3      30.07F                  
ROME             N/A     94  36  13 NW3       30.01F                  
ONTARIO        MOSUNNY   95  48  20 VRB5      29.93F HX  91           
$$